[[{"header":{"parameterUnit":"m.s-1","parameterCategory":1,"la1":30.2991,"la2":30.254,"lo1":-89.0895,"lo2":-89.0444,"dy":0.0017,"dx":0.0017,"nx":28,"ny":28,"refTime":"2025-09-02T09:00:00:Z","depth":0,"parameterNumber":2,"parameterNumberName":"U-component_of_WINDS"},"data":[0,0,0,0,0,0,0,0,0,0,0,0,0,0,0,0,0,0,0,0,0,0,0,0,0,0,0,0,0,0,0,0,0,0,0,0,0,0,0,0,0,0,0,0,0,0,0,0,0,0,0,0,0,0,0,0,0,0,-1.8913,-1.8913,0,-1.8913,-1.8913,-1.8913,-1.8829,-1.8827,-1.8825,-1.8823,-1.8824,-1.8826,-1.8828,0,0,0,0,0,0,0,0,0,0,0,0,0,-1.8844,-1.8845,-1.8913,-1.8913,-1.8913,-1.8913,-1.8913,-1.8913,-1.8829,-1.8827,-1.8824,-1.8822,-1.8823,-1.8825,-1.8828,0,0,0,0,0,0,0,0,0,0,0,0,0,-1.8862,-1.8846,-1.8913,-1.8872,-1.8868,-1.8913,-1.8913,-1.8913,-1.883,-1.8827,-1.8823,-1.882,-1.8822,-1.8825,-1.8828,-1.8913,0,0,-1.8838,-1.8839,0,0,0,0,0,0,0,0,-1.8861,-1.8864,-1.8878,-1.8875,-1.887,-1.8867,-1.8888,-1.8913,-1.8831,-1.8844,-1.8823,-1.8819,-1.8841,-1.8842,-1.8849,-1.8913,-1.8913,-1.8838,-1.884,-1.8841,-1.8842,0,0,0,0,0,0,0,-1.8859,-1.8864,-1.8913,-1.8878,-1.8874,-1.8853,-1.8852,-1.8893,-1.8861,-1.8843,-1.8837,-1.8838,-1.8838,-1.8847,-1.8849,-1.8913,-1.8838,-1.8841,-1.8843,-1.8844,-1.9046,-1.9049,0,0,0,0,0,0,-1.8864,-1.8863,-1.8913,-1.8913,-1.8857,-1.8857,-1.8856,-1.8872,-1.8861,-1.8856,-1.8841,-1.8834,-1.8843,-1.8845,-1.8849,-1.8947,-1.8841,-1.8844,-1.8846,-1.9043,-1.9047,-1.9051,0,0,0,0,0,0,-1.8863,-1.8869,-1.8913,-1.8886,-1.889,-1.8862,-1.888,-1.8874,-1.8882,-1.8859,-1.8853,-1.8855,-1.8841,-1.8844,-1.8897,-1.8946,-1.8845,-1.8848,-1.9038,-1.9044,-1.9049,-1.9144,0,0,0,0,0,0,-1.8861,-1.8869,-1.8901,-1.8888,-1.8892,-1.8962,-1.8883,-1.8876,-1.8887,-1.8878,-1.8871,-1.8866,-1.8838,-1.8893,-1.8901,-1.8948,-1.8851,-1.9034,-1.9041,-1.9047,-1.9136,-1.9152,-1.9165,0,0,0,0,0,-1.8859,-1.8928,-1.8903,-1.8909,-1.8931,-1.8965,-1.8967,-1.8933,-1.8891,-1.8923,-1.8908,-1.8866,-1.8939,-1.8899,-1.8907,-1.8956,-1.9031,-1.9039,-1.9047,-1.913,-1.9149,-1.9165,0,0,0,0,0,0,-1.8948,-1.8926,-1.8897,-1.8964,-1.8967,-1.8951,-1.8989,-1.8954,-1.8969,-1.8961,-1.8918,-1.8917,-1.8977,-1.8972,-1.8928,-1.9037,-1.8978,-1.8987,-1.9039,-1.9056,-1.907,-1.907,-1.8853,0,0,0,0,0,-1.8976,-1.9004,-1.8983,-1.9045,-1.9047,-1.9019,-1.9032,-1.9005,-1.9007,-1.9007,-1.8996,-1.9,-1.9023,-1.9039,-1.906,-1.9136,-1.9132,-1.9173,-1.9187,-1.9199,-1.9208,-1.9247,-1.9265,-1.9077,-1.9077,-1.9076,0,0,-1.9033,-1.9024,-1.9045,-1.9062,-1.9061,-1.9092,-1.902,-1.9056,-1.9078,-1.9013,-1.9062,-1.9055,-1.9055,-1.912,-1.9148,-1.9117,-1.926,-1.9209,-1.9219,-1.9221,-1.9257,-1.9275,-1.9291,-1.9082,-1.9081,-1.908,0,0,-1.9152,-1.9149,-1.9199,-1.9199,-1.9198,-1.9179,-1.9191,-1.918,-1.9172,-1.9221,-1.9172,-1.9199,-1.924,-1.9242,-1.9249,-1.937,-1.9332,-1.9378,-1.9452,-1.9491,-1.9506,-1.9519,-1.9561,-1.9577,-1.9387,-1.9387,-1.9387,0,-1.9224,-1.9267,-1.923,-1.9268,-1.9277,-1.9219,-1.927,-1.9272,-1.9279,-1.9286,-1.9252,-1.9302,-1.9299,-1.9363,-1.9392,-1.94,-1.9413,-1.9378,-1.9507,-1.9519,-1.9531,-1.9571,-1.9587,-1.9392,-1.9392,-1.9391,-1.9391,0,-1.9355,-1.9386,-1.9427,-1.9434,-1.9447,-1.9492,-1.9461,-1.948,-1.9452,-1.9437,-1.9487,-1.9481,-1.9499,-1.9512,-1.9486,-1.9573,-1.9554,-1.9514,-1.9453,-1.9555,-1.9592,-1.9607,-1.94,-1.9398,-1.9397,-1.9395,0,0,-1.9531,-1.9515,-1.9531,-1.9533,-1.9527,-1.9551,-1.9593,-1.961,-1.9627,-1.9633,-1.9667,-1.9704,-1.9667,-1.9675,-1.9648,-1.9682,-1.9778,-1.9638,-1.9637,-1.9664,-1.9872,-1.9902,-1.992,-1.9753,-1.9755,-1.9758,-1.9872,0,-1.9646,-1.9716,-1.9683,-1.9757,-1.9786,-1.9731,-1.9768,-1.9769,-1.9755,-1.9777,-1.9763,-1.9789,-1.9738,-1.9742,-1.9774,-1.976,-1.9819,-1.9751,-1.9784,-1.9786,-1.9785,-1.994,-1.9971,-2.008,-1.9886,-1.9889,-1.9891,0,-1.979,-1.9801,-1.9878,-1.9867,-1.9878,-1.9911,-1.9924,-1.9946,-1.9946,-1.9934,-1.9942,-1.9908,-1.9949,-1.9889,-1.9945,-1.9899,-1.9911,-1.9906,-1.9909,-1.9911,-1.9844,-1.9945,-2.0113,-2.013,-1.9913,-1.9911,-1.991,0,-1.9909,-1.9944,-1.9994,-1.9998,-1.9987,-2.0011,-2.0008,-2.0004,-2.0017,-2.0028,-2.0035,-2.0052,-2.0061,-2.0075,-2.0046,-2.0005,-2.0106,-2.0043,-2.0097,-2.0098,-2.012,-2.0119,-2.0292,-2.0129,-2.0129,-2.0128,-2.0128,0,-2.0041,-2.009,-2.0048,-2.0079,-2.0132,-2.0094,-2.0148,-2.0139,-2.0136,-2.0165,-2.0119,-2.0147,-2.0107,-2.0131,-2.0109,-2.0159,-2.0163,-2.0155,-2.0148,-2.0159,-2.016,-2.0165,-2.0157,-2.0132,-2.0132,-2.0131,-2.013,0,-2.0184,-2.0157,-2.0208,-2.0193,-2.0191,-2.0231,-2.0218,-2.0246,-2.0229,-2.0266,-2.0272,-2.0246,-2.0272,-2.0245,-2.0269,-2.0254,-2.032,-2.0303,-2.032,-2.0315,-2.037,-2.0365,-2.0553,-2.0575,-2.0398,-2.04,-2.0401,0,-2.0269,-2.0306,-2.0294,-2.031,-2.0309,-2.0334,-2.0346,-2.031,-2.0324,-2.0327,-2.0355,-2.0377,-2.0392,-2.0437,-2.042,-2.0439,-2.0421,-2.0486,-2.0424,-2.0433,-2.0421,-2.0419,-2.0423,-2.0498,-2.05,-2.0502,-2.0503,0,-2.0424,-2.0409,-2.0428,-2.0442,-2.0457,-2.0467,-2.0473,-2.0489,-2.0451,-2.047,-2.0495,-2.0507,-2.0532,-2.0554,-2.0568,-2.0564,-2.0528,-2.0523,-2.0536,-2.0547,-2.0555,-2.0551,-2.0354,-2.0519,-2.0517,-2.0516,-2.0515,-2.0515,-2.0541,-2.057,-2.0566,-2.0588,-2.0589,-2.0596,-2.0621,-2.0608,-2.0628,-2.0644,-2.0622,-2.0654,-2.0653,-2.0667,-2.0668,-2.0692,-2.0665,-2.0684,-2.0689,-2.0695,-2.0702,-2.0552,-2.0695,-2.0694,-2.0694,-2.0694,-2.0693,0,-2.0692,-2.0687,-2.0708,-2.0717,-2.0735,-2.0699,-2.0704,-2.0721,-2.0749,-2.0751,-2.0767,-2.0796,-2.0817,-2.0803,-2.0821,-2.0843,-2.0827,-2.0849,-2.0847,-2.0847,-2.0726,-2.0712,-2.0862,-2.0862,-2.0862,-2.0862,-2.0862,-2.0862,-2.0774,-2.0821,-2.0806,-2.0854,-2.0848,-2.0878,-2.0884,-2.089,-2.0891,-2.0926,-2.0943,-2.0933,-2.0928,-2.0945,-2.0964,-2.0959,-2.0967,-2.0996,-2.0985,-2.0872,-2.0856,-2.084,-2.0827,-2.0998,-2.0998,-2.1104,-2.1105,-2.1105]},{"header":{"parameterUnit":"m.s-1","parameterCategory":1,"la1":30.2991,"la2":30.254,"lo1":-89.0895,"lo2":-89.0444,"dy":0.0017,"dx":0.0017,"nx":28,"ny":28,"refTime":"2025-09-02T09:00:00:Z","depth":0,"parameterNumber":3,"parameterNumberName":"V-component_of_WINDS"},"data":[0,0,0,0,0,0,0,0,0,0,0,0,0,0,0,0,0,0,0,0,0,0,0,0,0,0,0,0,0,0,0,0,0,0,0,0,0,0,0,0,0,0,0,0,0,0,0,0,0,0,0,0,0,0,0,0,0,0,1.8814,1.8814,0,1.8789,1.8789,1.8789,1.8758,1.8758,1.8757,1.8757,1.8731,1.8731,1.873,0,0,0,0,0,0,0,0,0,0,0,0,0,1.8834,1.8834,1.8814,1.8813,1.8813,1.8789,1.8789,1.8789,1.8758,1.8758,1.8757,1.8756,1.8731,1.8731,1.873,0,0,0,0,0,0,0,0,0,0,0,0,0,1.8819,1.8833,1.8814,1.8795,1.8793,1.8789,1.8789,1.8788,1.8758,1.8758,1.8757,1.8756,1.8731,1.8731,1.873,1.8743,0,0,1.8729,1.8729,0,0,0,0,0,0,0,0,1.882,1.8818,1.8798,1.8796,1.8794,1.8776,1.8786,1.8773,1.8758,1.8772,1.8757,1.8756,1.8746,1.8745,1.8742,1.8742,1.874,1.8729,1.8729,1.8729,1.8729,0,0,0,0,0,0,0,1.8821,1.8819,1.8804,1.8798,1.8796,1.8788,1.8785,1.8784,1.8763,1.877,1.8768,1.8766,1.8745,1.8742,1.8741,1.874,1.8729,1.8729,1.8729,1.8729,1.8748,1.8748,0,0,0,0,0,0,1.8825,1.882,1.8805,1.8803,1.8805,1.8788,1.8785,1.8783,1.8763,1.876,1.8766,1.8764,1.8743,1.8741,1.874,1.8752,1.8729,1.8729,1.8728,1.8747,1.8748,1.8748,0,0,0,0,0,0,1.8825,1.8824,1.8806,1.8811,1.8808,1.8788,1.8786,1.8782,1.8779,1.876,1.8756,1.8767,1.8742,1.874,1.8742,1.8751,1.8728,1.8728,1.8746,1.8747,1.8748,1.8777,0,0,0,0,0,0,1.8826,1.8824,1.8829,1.8811,1.8808,1.8809,1.8787,1.8782,1.8779,1.8776,1.876,1.8756,1.8742,1.8743,1.8742,1.875,1.8728,1.8745,1.8746,1.8748,1.8775,1.8779,1.8782,0,0,0,0,0,1.8827,1.8838,1.8829,1.8827,1.8813,1.8809,1.8807,1.879,1.878,1.8784,1.8772,1.8757,1.875,1.8743,1.8742,1.875,1.8744,1.8746,1.8748,1.8774,1.8778,1.8782,0,0,0,0,0,0,1.8856,1.8835,1.8825,1.8831,1.8822,1.8804,1.8809,1.8796,1.879,1.8787,1.8767,1.8763,1.8767,1.8759,1.8751,1.876,1.8745,1.8747,1.8765,1.877,1.8773,1.8774,1.8728,0,0,0,0,0,1.8864,1.8862,1.8844,1.8851,1.8847,1.8829,1.8826,1.8814,1.8804,1.88,1.8788,1.8778,1.8774,1.8772,1.8767,1.8774,1.877,1.8779,1.8783,1.8786,1.8787,1.8789,1.8793,1.8754,1.8754,1.8754,0,0,1.8879,1.8867,1.8867,1.8856,1.8848,1.8847,1.8826,1.8825,1.8824,1.88,1.88,1.8791,1.8779,1.8784,1.8785,1.8777,1.8797,1.8788,1.879,1.879,1.8791,1.8795,1.8798,1.8755,1.8755,1.8754,0,0,1.8905,1.8896,1.8901,1.8893,1.888,1.8868,1.887,1.8853,1.8846,1.8847,1.8828,1.8826,1.882,1.8811,1.8806,1.883,1.8815,1.8829,1.8846,1.8849,1.8852,1.8855,1.8862,1.8865,1.883,1.883,1.883,0,1.8925,1.8922,1.8904,1.8905,1.89,1.8879,1.8883,1.8876,1.8863,1.886,1.8851,1.8842,1.8832,1.8834,1.884,1.8837,1.8837,1.883,1.8853,1.8855,1.8858,1.8864,1.8867,1.8832,1.8832,1.8831,1.8831,0,1.8946,1.8945,1.895,1.8938,1.8934,1.8936,1.8919,1.8917,1.8905,1.8894,1.8894,1.8882,1.8874,1.8874,1.8862,1.8873,1.8869,1.8857,1.8841,1.8863,1.8869,1.8871,1.8834,1.8833,1.8833,1.8833,0,0,1.899,1.8968,1.897,1.8964,1.8949,1.8947,1.8948,1.894,1.8938,1.893,1.893,1.8925,1.8914,1.8908,1.8896,1.8898,1.8916,1.8886,1.8885,1.8891,1.8926,1.8934,1.8937,1.8907,1.8907,1.8908,1.8927,0,1.9012,1.9013,1.8997,1.9002,1.9,1.898,1.898,1.8971,1.8961,1.8957,1.8946,1.8942,1.8928,1.8924,1.8926,1.8913,1.8922,1.8912,1.8905,1.8905,1.8908,1.894,1.8949,1.8967,1.8929,1.8929,1.8929,0,1.9038,1.9031,1.9036,1.902,1.9018,1.902,1.9011,1.9008,1.8997,1.8989,1.8983,1.8969,1.8968,1.8954,1.8952,1.8946,1.8942,1.8936,1.8936,1.8933,1.8918,1.8938,1.8973,1.8975,1.8933,1.8933,1.8932,0,1.9067,1.9059,1.9061,1.9056,1.9038,1.904,1.9032,1.902,1.9016,1.9009,1.9006,1.8998,1.8994,1.8988,1.8972,1.8963,1.8972,1.8957,1.8964,1.8965,1.8966,1.8966,1.9,1.8966,1.8966,1.8966,1.8966,0,1.9093,1.9096,1.9074,1.9075,1.9077,1.906,1.9063,1.9053,1.9043,1.9041,1.9024,1.9022,1.9002,1.8998,1.8986,1.8985,1.8984,1.8977,1.8973,1.8978,1.8979,1.8974,1.8972,1.8967,1.8967,1.8967,1.8966,0,1.9126,1.9111,1.9111,1.9094,1.909,1.9093,1.9078,1.9078,1.9067,1.9065,1.9063,1.9045,1.904,1.9023,1.9014,1.9005,1.9008,1.9003,1.9012,1.901,1.9018,1.9017,1.9049,1.9052,1.9018,1.9018,1.9019,0,1.9143,1.9145,1.9128,1.9126,1.9119,1.9116,1.9111,1.9094,1.909,1.9078,1.9079,1.9072,1.9065,1.9058,1.9043,1.9036,1.9029,1.9041,1.9027,1.9031,1.9027,1.9027,1.9026,1.9043,1.9044,1.9044,1.9044,0,1.9174,1.9166,1.9161,1.9153,1.9149,1.9142,1.9134,1.9133,1.9113,1.911,1.9104,1.9099,1.909,1.9083,1.9073,1.9064,1.9051,1.9049,1.905,1.9054,1.9059,1.9055,1.9019,1.9048,1.9047,1.9047,1.9047,1.9047,1.9198,1.9198,1.9187,1.9181,1.9174,1.9167,1.9165,1.9154,1.9149,1.914,1.913,1.9125,1.9113,1.9099,1.9091,1.9087,1.908,1.9082,1.9082,1.9082,1.9084,1.9061,1.9085,1.9085,1.9085,1.9085,1.9085,0,1.9227,1.9218,1.9214,1.9203,1.9199,1.9187,1.9178,1.9175,1.9171,1.9161,1.9155,1.9148,1.9141,1.9127,1.9118,1.9118,1.9111,1.9116,1.9115,1.9113,1.9091,1.9091,1.9121,1.9121,1.9121,1.9121,1.9121,1.9121,1.9241,1.9241,1.9232,1.9228,1.922,1.9215,1.921,1.9203,1.9196,1.9189,1.9183,1.9174,1.9162,1.9152,1.9145,1.9141,1.9138,1.9145,1.9139,1.9118,1.9115,1.9111,1.9111,1.9145,1.9145,1.9161,1.9161,1.9161]}]]